Location: Poughquag
(41.6090°N, 73.6820°W)
Time: 20:57:24
(UTC-04:00)

STARLINK-1324 - Pass Details

Date: 29 May 2020
Orbit: 379 x 380 km, 53.0° (Epoch: 04 July)

Event Time Altitude Azimuth Distance (km) Brightness Sun altitude
Exits shadow 03:03:29 19° 307° (NW) 984 4.9 -19.8°
Maximum altitude 03:04:30 22° 335° (NNW) 885 5.0 -19.7°
Drops below altitude 10° 03:07:03 10° 30° (NNE) 1,399 6.9 -19.4°
Sets 03:09:23 0° 46° (NE) 2,254 8.3 -19.2°
